Board Camp, AR

6:12 AM CST on February 11, 2016 (GMT -0600)
Mena

Weather History for KMEZ - March, 2014

Change the Weather History Date:

Friday, March 28, 2014

  Actual Average (KDEQ) Record (KDEQ)
Temperature  
Mean Temperature 63 °F 56 °F  
Max Temperature 71 °F 69 °F 88 °F (1967)
Min Temperature 53 °F 43 °F 27 °F (1942)
Degree Days  
Heating Degree Days 2 9  
Month to date heating degree days 349  
Since 1 July heating degree days 2840  
Cooling Degree Days 0 0  
Month to date cooling degree days 0  
Year to date cooling degree days 2  
Growing Degree Days 13 (Base 50)    
Moisture  
Dew Point 61 °F    
Average Humidity 91    
Maximum Humidity 100    
Minimum Humidity 77    
Precipitation  
Precipitation 0.09 in 0.19 in 4.50 in (1977)
Month to date precipitation 4.06  
Year to date precipitation 11.06  
Snow  
Snow 0.00 in - - ()
Month to date snowfall  
Since 1 July snowfall  
Snow Depth -    
Sea Level Pressure  
Sea Level Pressure 29.87 in    
Wind  
Wind Speed 2 mph (NE)    
Max Wind Speed 15 mph    
Max Gust Speed 20 mph    
Visibility 6 miles    
Events Fog , Rain , Thunderstorm    
T = Trace of Precipitation, MM = Missing Value Source: NWS Daily Summary

Daily Weather History Graph

Daily Weather History Graph

Search for Another Location

Airport or City:

Trip Planner

Search our weather history database for the weather conditions in past years. The results will help you decide how hot, cold, wet, or windy it might be!

Date:

Astronomy

Mar. 28, 2014 Rise Set
Actual Time 7:09 AM CDT 7:34 PM CDT
Civil Twilight 6:44 AM CDT 8:00 PM CDT
Nautical Twilight 6:14 AM CDT 8:29 PM CDT
Astronomical Twilight 5:44 AM CDT 8:59 PM CDT
Moon 5:35 AM CDT (3/28) 5:36 PM CDT (3/28)
Length of Visible Light 13h 15m
Length of Day
12h 25m
Waning Crescent, 6% of the Moon is Illuminated
Mar 28
Waning Crescent
Mar 30
New
Apr 7
First Quarter
Apr 15
Full
Apr 22
Last Quarter

Hourly Weather History & Observations

Time (CDT) Temp. Dew Point Humidity Pressure Visibility Wind Dir Wind Speed Gust Speed Precip Events Conditions
12:15 AM 66.2 °F 66.2 °F 100% 29.81 in 10.0 mi Calm Calm - N/A   Overcast
12:35 AM 68.0 °F 68.0 °F 100% 29.81 in 10.0 mi Calm Calm - N/A   Overcast
12:55 AM 66.2 °F 66.2 °F 100% 29.82 in 10.0 mi Calm Calm - N/A   Overcast
1:15 AM 66.2 °F 66.2 °F 100% 29.82 in 10.0 mi Calm Calm - N/A   Overcast
1:35 AM 64.4 °F 64.4 °F 100% 29.82 in 10.0 mi Calm Calm - N/A   Overcast
1:55 AM 64.4 °F - N/A% 29.83 in 10.0 mi Calm Calm - N/A   Overcast
2:15 AM 64.4 °F - N/A% 29.83 in 7.0 mi Calm Calm - N/A Rain Light Rain
2:35 AM 64.4 °F - N/A% 29.82 in 7.0 mi Calm Calm - N/A   Overcast
2:55 AM 64.4 °F - N/A% 29.81 in 7.0 mi Calm Calm - N/A   Overcast
3:15 AM 62.6 °F - N/A% 29.80 in 0.8 mi Calm Calm - N/A   Mostly Cloudy
3:35 AM 62.6 °F - N/A% 29.81 in 1.0 mi Calm Calm - N/A Thunderstorm Mostly Cloudy
3:55 AM 62.6 °F - N/A% 29.81 in 2.5 mi Calm Calm - N/A Rain , Thunderstorm Rain
4:15 AM 62.6 °F - N/A% 29.81 in 2.5 mi Calm Calm - 0.02 in   Drizzle
4:35 AM 62.6 °F - N/A% 29.81 in 2.0 mi Calm Calm - 0.02 in Rain Rain
4:55 AM 62.6 °F - N/A% 29.82 in 2.5 mi Calm Calm - 0.02 in   Overcast
5:15 AM 62.6 °F - N/A% 29.82 in 2.0 mi Calm Calm - N/A   Overcast
5:35 AM 62.6 °F - N/A% 29.82 in 3.0 mi Calm Calm - N/A Rain Light Rain
5:55 AM 62.6 °F - N/A% 29.83 in 4.0 mi Calm Calm - N/A   Haze
6:15 AM 62.6 °F - N/A% 29.84 in 2.5 mi ENE 3.5 mph - N/A   Overcast
6:35 AM 62.6 °F - N/A% 29.85 in 5.0 mi ENE 3.5 mph - N/A   Haze
6:55 AM 62.6 °F - N/A% 29.85 in 7.0 mi Calm Calm - N/A   Overcast
7:15 AM 62.6 °F - N/A% 29.86 in 3.0 mi Calm Calm - N/A   Overcast
7:35 AM 62.6 °F - N/A% 29.86 in 0.2 mi Calm Calm - N/A Fog Fog
7:55 AM 62.6 °F - N/A% 29.87 in 0.2 mi Calm Calm - N/A Fog Fog
8:15 AM 62.6 °F - N/A% 29.88 in 0.2 mi Calm Calm - N/A Fog Fog
8:35 AM 62.6 °F - N/A% 29.89 in 0.2 mi Calm Calm - N/A Fog Fog
8:55 AM 62.6 °F - N/A% 29.89 in 0.2 mi NE 3.5 mph - N/A Fog Fog
9:15 AM 62.6 °F 62.6 °F 100% 29.89 in 0.2 mi ENE 3.5 mph - N/A   Drizzle
9:35 AM 62.6 °F 62.6 °F 100% 29.89 in 0.2 mi East 5.8 mph - N/A   Light Drizzle
9:55 AM 64.4 °F 64.4 °F 100% 29.89 in 0.2 mi East 4.6 mph - N/A Fog Fog
10:15 AM 64.4 °F 64.4 °F 100% 29.89 in 0.8 mi East 5.8 mph - N/A   Overcast
10:35 AM 64.4 °F 64.4 °F 100% 29.89 in 2.5 mi East 3.5 mph - N/A   Overcast
11:15 AM 66.2 °F 66.2 °F 100% 29.89 in 7.0 mi East 5.8 mph - N/A   Overcast
11:35 AM 66.2 °F 66.2 °F 100% 29.89 in 7.0 mi East 5.8 mph - N/A Rain Light Rain
11:55 AM 66.2 °F 66.2 °F 100% 29.89 in 7.0 mi East 4.6 mph - N/A   Overcast
12:15 PM 66.2 °F - N/A% 29.89 in 7.0 mi Calm Calm - N/A   Overcast
12:35 PM 66.2 °F - N/A% 29.89 in 7.0 mi Calm Calm - N/A   Overcast
12:55 PM 68.0 °F - N/A% 29.89 in 4.0 mi Calm Calm - 0.03 in Rain , Thunderstorm Heavy Thunderstorms and Rain
1:15 PM 68.0 °F - N/A% 29.89 in 5.0 mi NNW 4.6 mph - N/A Thunderstorm Unknown
1:35 PM 68.0 °F - N/A% 29.87 in 7.0 mi NNE 3.5 mph - N/A   Overcast
1:55 PM 68.0 °F - N/A% 29.87 in 10.0 mi Calm Calm - N/A   Overcast
2:15 PM 69.8 °F 69.8 °F 100% 29.88 in 7.0 mi Calm Calm - N/A   Mostly Cloudy
2:35 PM 68.0 °F 68.0 °F 100% 29.89 in 7.0 mi West 5.8 mph - N/A   Overcast
2:55 PM 68.0 °F - N/A% 29.85 in 5.0 mi Calm Calm - 0.01 in Rain Light Rain
3:15 PM 69.8 °F 69.8 °F 100% 29.82 in 5.0 mi ESE 3.5 mph - N/A   Scattered Clouds
3:35 PM 69.8 °F 69.8 °F 100% 29.81 in 7.0 mi East 3.5 mph - N/A   Scattered Clouds
3:55 PM 69.8 °F 69.8 °F 100% 29.82 in 7.0 mi Calm Calm - N/A Rain Light Rain
4:15 PM 69.8 °F 69.8 °F 100% 29.81 in 7.0 mi East 3.5 mph - N/A   Clear
4:35 PM 71.6 °F 71.6 °F 100% 29.82 in 10.0 mi West 5.8 mph - N/A   Clear
4:55 PM 71.6 °F 66.2 °F 83% 29.80 in 10.0 mi NNW 5.8 mph - N/A   Clear
5:15 PM 71.6 °F 66.2 °F 83% 29.82 in 10.0 mi NNW 6.9 mph - N/A   Clear
5:35 PM 69.8 °F 62.6 °F 78% 29.85 in 10.0 mi North 3.5 mph - N/A   Scattered Clouds
5:55 PM 68.0 °F 60.8 °F 78% 29.83 in 10.0 mi NNW 8.1 mph - N/A   Scattered Clouds
6:15 PM 66.2 °F 60.8 °F 83% 29.85 in 10.0 mi NNE 4.6 mph - N/A Rain Rain
6:35 PM 62.6 °F 60.8 °F 94% 29.85 in 10.0 mi NNE 6.9 mph - 0.03 in Rain Light Rain
6:55 PM 62.6 °F 59.0 °F 88% 29.89 in 10.0 mi NNW 9.2 mph - 0.03 in   Overcast
7:15 PM 62.6 °F 55.4 °F 77% 29.90 in 10.0 mi North 6.9 mph - N/A   Overcast
7:35 PM 60.8 °F 53.6 °F 77% 29.89 in 10.0 mi NNW 3.5 mph - N/A   Overcast
7:55 PM 60.8 °F 55.4 °F 82% 29.89 in 10.0 mi North 6.9 mph - N/A   Overcast
8:15 PM 60.8 °F 55.4 °F 82% 29.90 in 10.0 mi NE 8.1 mph - N/A   Overcast
8:35 PM 60.8 °F 55.4 °F 82% 29.92 in 10.0 mi NNE 12.7 mph 19.6 mph N/A   Overcast
8:55 PM 59.0 °F 53.6 °F 82% 29.95 in 10.0 mi North 15.0 mph 19.6 mph N/A   Overcast
9:15 PM 59.0 °F 51.8 °F 77% 29.96 in 10.0 mi North 9.2 mph - N/A   Overcast
9:35 PM 59.0 °F 51.8 °F 77% 29.98 in 10.0 mi NNE 8.1 mph - N/A   Overcast
9:55 PM 57.2 °F 51.8 °F 82% 29.97 in 10.0 mi North 6.9 mph - N/A   Overcast
10:15 PM 57.2 °F 51.8 °F 82% 29.96 in 10.0 mi NNE 10.4 mph - N/A   Overcast
10:35 PM 57.2 °F 51.8 °F 82% 29.96 in 10.0 mi East 8.1 mph - N/A   Overcast
10:55 PM 55.4 °F 51.8 °F 88% 29.98 in 10.0 mi ENE 3.5 mph - N/A   Scattered Clouds
11:15 PM 55.4 °F 53.6 °F 94% 29.98 in 10.0 mi East 3.5 mph - N/A   Clear
11:35 PM 55.4 °F 51.8 °F 88% 30.00 in 10.0 mi NE 3.5 mph - N/A   Clear
11:55 PM 53.6 °F 51.8 °F 94% 30.01 in 10.0 mi Calm Calm - N/A   Clear